Weather History for KRQB - January, 2014

Change the Weather History Date:

Saturday, January 18, 2014

  Actual Average Record
Temperature  
Mean Temperature 20 °F -  
Max Temperature 24 °F 28 °F 49 °F (1973)
Min Temperature 16 °F 10 °F -15 °F (1976)
Degree Days  
Heating Degree Days 45    
Moisture  
Dew Point 16 °F    
Average Humidity 83    
Maximum Humidity 88    
Minimum Humidity 77    
Precipitation  
Precipitation 0.00 in - - ()
Sea Level Pressure  
Sea Level Pressure 29.80 in    
Wind  
Wind Speed 2 mph (South)    
Max Wind Speed 8 mph    
Max Gust Speed -    
Visibility 8 miles    
Events Snow    
Averages and records for this station are not official NWS values.
T = Trace of Precipitation, MM = Missing Value Source: NWS Daily Summary

Daily Weather History Graph

Daily Weather History Graph

Search for Another Location

Airport or City:

Trip Planner

Search our weather history database for the weather conditions in past years. The results will help you decide how hot, cold, wet, or windy it might be!

Date:

Astronomy

Jan. 18, 2014 Rise Set
Actual Time 8:10 AM EST 5:34 PM EST
Civil Twilight 7:39 AM EST 6:06 PM EST
Nautical Twilight 7:03 AM EST 6:41 PM EST
Astronomical Twilight 6:29 AM EST 7:15 PM EST
Moon 8:22 PM EST (1/18) 9:04 AM EST (1/18)
Length of Visible Light 10h 26m
Length of Day
9h 23m
Waning Gibbous, 94% of the Moon is Illuminated
Jan 18
Waning Gibbous
Jan 24
Last Quarter
Jan 30
New
Feb 6
First Quarter
Feb 14
Full

Hourly Weather History & Observations

Time (EST) Temp. Windchill Dew Point Humidity Pressure Visibility Wind Dir Wind Speed Gust Speed Precip Events Conditions
12:15 AM 20.3 °F - 16.3 °F 85% 29.80 in 7.0 mi Calm Calm - N/A Snow Light Snow
12:35 AM 20.3 °F - 16.5 °F 85% 29.79 in 10.0 mi Calm Calm - N/A   Overcast
12:54 AM 20.3 °F - 16.5 °F 85% 29.78 in 10.0 mi Calm Calm - N/A Snow Light Snow
1:15 AM 20.3 °F 15.4 °F 16.5 °F 85% 29.79 in 10.0 mi South 3.5 mph - N/A   Overcast
1:35 AM 20.7 °F - 16.7 °F 85% 29.78 in 10.0 mi Calm Calm - N/A Snow Light Snow
1:54 AM 20.7 °F - 16.7 °F 85% 29.78 in 10.0 mi Calm Calm - N/A Snow Light Snow
2:15 AM 20.8 °F - 17.1 °F 85% 29.79 in 7.0 mi Calm Calm - N/A Snow Light Snow
2:35 AM 20.8 °F - 17.2 °F 86% 29.80 in 5.0 mi Calm Calm - N/A Snow Light Snow
2:54 AM 20.8 °F - 17.4 °F 87% 29.80 in 7.0 mi Calm Calm - N/A Snow Light Snow
3:15 AM 20.7 °F - 17.2 °F 87% 29.81 in 7.0 mi Calm Calm - N/A Snow Light Snow
3:35 AM 20.7 °F - 17.4 °F 87% 29.80 in 10.0 mi Calm Calm - N/A   Overcast
3:54 AM 20.5 °F - 17.4 °F 88% 29.80 in 10.0 mi Calm Calm - N/A Snow Light Snow
4:15 AM 20.5 °F 15.6 °F 17.2 °F 87% 29.80 in 10.0 mi South 3.5 mph - N/A   Overcast
4:35 AM 20.1 °F 15.2 °F 16.7 °F 87% 29.80 in 10.0 mi SSE 3.5 mph - N/A   Overcast
4:54 AM 19.9 °F 14.9 °F 16.5 °F 87% 29.80 in 10.0 mi South 3.5 mph - N/A   Overcast
5:15 AM 19.4 °F 11.5 °F 15.8 °F 86% 29.80 in 10.0 mi South 5.8 mph - N/A   Overcast
5:35 AM 18.9 °F 13.7 °F 15.4 °F 87% 29.80 in 10.0 mi South 3.5 mph - N/A   Overcast
5:54 AM 18.5 °F 11.7 °F 14.9 °F 86% 29.80 in 10.0 mi SSE 4.6 mph - N/A   Overcast
6:15 AM 18.5 °F 13.3 °F 14.9 °F 86% 29.80 in 10.0 mi South 3.5 mph - N/A   Overcast
6:35 AM 18.5 °F 13.3 °F 14.9 °F 86% 29.80 in 10.0 mi South 3.5 mph - N/A   Overcast
6:54 AM 18.5 °F 13.3 °F 14.9 °F 86% 29.80 in 7.0 mi South 3.5 mph - N/A Snow Light Snow
7:15 AM 18.3 °F 13.1 °F 15.1 °F 87% 29.80 in 5.0 mi SSE 3.5 mph - N/A Snow Light Snow
7:35 AM 18.1 °F - 14.9 °F 87% 29.80 in 5.0 mi Calm Calm - N/A Snow Light Snow
7:54 AM 18.0 °F 12.7 °F 14.9 °F 88% 29.79 in 4.0 mi SE 3.5 mph - N/A Snow Light Snow
8:15 AM 18.0 °F - 14.9 °F 88% 29.80 in 5.0 mi Calm Calm - N/A Snow Light Snow
8:35 AM 18.0 °F - 14.9 °F 88% 29.80 in 5.0 mi Calm Calm - N/A Snow Light Snow
8:54 AM 18.0 °F 12.7 °F 14.9 °F 88% 29.80 in 4.0 mi SSE 3.5 mph - N/A Snow Light Snow
9:15 AM 18.1 °F 10.0 °F 14.9 °F 87% 29.81 in 3.0 mi South 5.8 mph - N/A Snow Light Snow
9:34 AM 18.1 °F 12.9 °F 14.9 °F 87% 29.82 in 2.0 mi South 3.5 mph - N/A Snow Light Snow
9:54 AM 18.3 °F - 15.1 °F 87% 29.82 in 1.0 mi Calm Calm - N/A Snow Light Snow
10:15 AM 18.5 °F 11.7 °F 15.4 °F 88% 29.82 in 2.0 mi SSE 4.6 mph - N/A Snow Light Snow
10:34 AM 19.2 °F 11.3 °F 15.4 °F 85% 29.83 in 3.0 mi South 5.8 mph - N/A Snow Light Snow
10:54 AM 19.4 °F 11.5 °F 15.4 °F 85% 29.83 in 3.0 mi SSE 5.8 mph - N/A Snow Light Snow
11:15 AM 20.5 °F - 16.5 °F 85% 29.83 in 2.0 mi Calm Calm - N/A Snow Light Snow
11:34 AM 21.2 °F - 16.9 °F 83% 29.82 in 1.2 mi Calm Calm - N/A Snow Light Snow
11:54 AM 22.1 °F - 17.1 °F 81% 29.82 in 2.5 mi Calm Calm - N/A Snow Light Snow
12:15 PM 22.5 °F - 17.2 °F 80% 29.81 in 5.0 mi Calm Calm - N/A Snow Light Snow
12:34 PM 23.7 °F - 17.6 °F 77% 29.81 in 10.0 mi Calm Calm - N/A   Mostly Cloudy
12:54 PM 22.6 °F - 17.1 °F 79% 29.80 in 10.0 mi Calm Calm - N/A   Overcast
1:15 PM 23.9 °F - 17.8 °F 77% 29.80 in 7.0 mi Calm Calm - N/A   Overcast
1:34 PM 23.7 °F - 18.0 °F 79% 29.79 in 3.0 mi Calm Calm - N/A Snow Light Snow
1:54 PM 24.8 °F 19.1 °F 18.9 °F 78% 29.78 in 5.0 mi SW 4.6 mph - N/A Snow Light Snow
2:15 PM 24.6 °F 20.3 °F 19.0 °F 79% 29.78 in 4.0 mi SW 3.5 mph - N/A Snow Light Snow
2:34 PM 24.6 °F 20.3 °F 18.9 °F 79% 29.78 in 4.0 mi SW 3.5 mph - N/A Snow Light Snow
2:54 PM 24.6 °F 20.3 °F 19.0 °F 79% 29.78 in 5.0 mi WSW 3.5 mph - N/A Snow Light Snow
3:15 PM 24.6 °F - 19.2 °F 80% 29.78 in 10.0 mi Calm Calm - N/A Snow Light Snow
3:34 PM 24.8 °F - 19.4 °F 80% 29.78 in 7.0 mi Calm Calm - N/A Snow Light Snow
3:54 PM 24.8 °F - 19.4 °F 80% 29.78 in 7.0 mi Calm Calm - N/A Snow Light Snow
4:15 PM 24.8 °F - 19.6 °F 81% 29.79 in 10.0 mi Calm Calm - N/A Snow Light Snow
4:34 PM 24.4 °F - 19.8 °F 82% 29.79 in 10.0 mi Calm Calm - N/A Snow Light Snow
4:55 PM 24.6 °F - 19.4 °F 81% 29.79 in 5.0 mi Calm Calm - N/A Snow Light Snow
5:15 PM 24.4 °F 18.6 °F 19.4 °F 81% 29.80 in 10.0 mi SSE 4.6 mph - N/A   Overcast
5:34 PM 23.9 °F 19.5 °F 19.4 °F 83% 29.80 in 7.0 mi SSE 3.5 mph - N/A Snow Light Snow
5:55 PM 23.9 °F 19.5 °F 19.2 °F 82% 29.81 in 10.0 mi South 3.5 mph - N/A   Overcast
6:15 PM 23.9 °F - 18.9 °F 81% 29.81 in 10.0 mi Calm Calm - N/A   Overcast
6:34 PM 23.5 °F - 18.5 °F 81% 29.81 in 10.0 mi Calm Calm - N/A   Overcast
6:55 PM 23.0 °F - 18.5 °F 83% 29.81 in 10.0 mi Calm Calm - N/A Snow Light Snow
7:15 PM 23.0 °F - 18.3 °F 82% 29.81 in 10.0 mi Calm Calm - N/A   Overcast
7:34 PM 22.6 °F 18.0 °F 17.6 °F 81% 29.80 in 10.0 mi SSW 3.5 mph - N/A   Overcast
7:55 PM 22.1 °F 17.4 °F 17.4 °F 82% 29.80 in 10.0 mi SSW 3.5 mph - N/A   Overcast
8:15 PM 21.7 °F 14.3 °F 16.9 °F 82% 29.79 in 10.0 mi South 5.8 mph - N/A   Overcast
8:34 PM 21.0 °F 14.6 °F 15.8 °F 80% 29.79 in 10.0 mi South 4.6 mph - N/A   Overcast
8:55 PM 20.3 °F 15.4 °F 15.1 °F 80% 29.79 in 10.0 mi South 3.5 mph - N/A   Overcast
9:15 PM 19.8 °F 13.2 °F 14.7 °F 81% 29.79 in 10.0 mi SSW 4.6 mph - N/A   Overcast
9:34 PM 19.2 °F 14.1 °F 14.0 °F 80% 29.79 in 10.0 mi SSW 3.5 mph - N/A   Overcast
9:55 PM 18.3 °F 13.1 °F 13.1 °F 80% 29.78 in 10.0 mi SSW 3.5 mph - N/A   Overcast
10:15 PM 18.3 °F 8.2 °F 13.1 °F 80% 29.78 in 10.0 mi WSW 8.1 mph - N/A   Overcast
10:34 PM 18.1 °F 10.0 °F 12.6 °F 79% 29.77 in 10.0 mi SW 5.8 mph - N/A   Overcast
10:55 PM 17.6 °F 8.2 °F 12.2 °F 79% 29.77 in 10.0 mi SW 6.9 mph - N/A Snow Light Snow
11:15 PM 17.2 °F 10.2 °F 11.8 °F 79% 29.77 in 10.0 mi West 4.6 mph - N/A   Overcast
11:34 PM 16.9 °F 11.5 °F 11.7 °F 80% 29.76 in 10.0 mi South 3.5 mph - N/A   Overcast
11:55 PM 16.3 °F 7.8 °F 11.3 °F 81% 29.74 in 7.0 mi South 5.8 mph - N/A Snow Light Snow